Location: Blanot
(47.1713°N, 4.2340°E)
Time: 04:34:51
(UTC+00:00)

Cosmos 1980 Rocket - Pass Details

Date: 14 July 2020
Orbit: 828 x 851 km, 71.0° (Epoch: 06 August)

Event Time Altitude Azimuth Distance (km) Brightness Sun altitude
Rises 01:39:42 0° 335° (NNW) 3,429 5.9 -16.8°
Reaches altitude 10° 01:42:15 10° 340° (NNW) 2,489 5.2 -16.6°
Maximum altitude 01:47:50 53° 57° (ENE) 1,042 3.0 -16.2°
Drops below altitude 10° 01:53:22 10° 134° (SE) 2,467 4.5 -15.7°
Sets 01:55:52 0° 139° (SE) 3,395 5.2 -15.5°
